TIME,DELAY(SENSOR),PRES,OXYGEN,RAWTEMP,T(OPTODE),TCPHASE,FLUOR,BETA(BETA700),BETA(BETA412),BETA(BETA440),CDOM,C(CSC),ED(ED412.40),ED(ED444.00),ED(ED489.70),ED(ED554.30),LU(LU411.80),LU(LU443.40),LU(LU489.60),LU(LU554.10),COMP,TILTX,TILTY,CHECK
1349839415,5809,825.6099853515625000,41.8282508850097660,657.3875122070312000,4.7139430046081540,54.6883506774902340,53,102,88,79,81,15183,2147753801,2147421732,2148008512,2147873142,2147639049,2147063643,2148262299,2147196507,3215,4,13,13387
1349843011,5808,887.2800292968750000,46.1130790710449200,667.8045043945312000,4.3706951141357420,54.1924705505371100,53,99,87,79,82,15187,2147756726,2147420498,2148007826,2147873526,2147642934,2147054381,2148265417,2147198262,38,5,13,40247
1349846611,5807,908.2100219726562000,46.5392494201660160,668.9782104492188000,4.3319449424743650,54.1443099975585940,53,107,87,79,81,15187,2147754688,2147422829,2148010971,2147874715,2147642221,2147058596,2148263515,2147198052,3547,4,13,51536
1349850211,5804,951.1699829101562000,46.4474601745605500,669.1343994140625000,4.3267879486083980,54.1573791503906250,53,98,88,80,81,15182,2147758171,2147421321,2148008045,2147876352,2147641837,2147059456,2148260516,2147198957,647,4,13,50365
1349853811,5809,935.9199829101562000,46.5855598449707000,670.2410888671875000,4.2902340888977050,54.1535186767578100,52,100,86,79,81,15184,2147757321,2147420160,2148011392,2147874477,2147642020,2147062701,2148261394,2147194688,1132,5,13,59984
1349857411,5805,950.2899780273438000,46.4637603759765600,670.0802001953125000,4.2955470085144040,54.1648292541503900,53,98,86,79,81,15183,2147758765,2147420854,2148008548,2147873755,2147643328,2147064128,2148266093,2147198262,3589,4,13,14284
1349861011,5809,971.0300292968750000,47.7708206176757800,672.5421752929688000,4.2141819000244140,54.0124816894531250,52,100,88,81,81,15179,2147759085,2147421348,2148008018,2147874752,2147644059,2147061211,2148266102,2147196708,3373,5,13,32333
1349864611,5811,981.9400024414062000,47.8312911987304700,672.4575805664062000,4.2169780731201170,54.0063209533691400,53,99,84,78,80,15182,2147761097,2147426130,2148007488,2147873910,2147642816,2147063780,2148259346,2147197449,21,5,13,51187
1349868211,5811,978.7600097656250000,47.4585113525390600,672.2994995117188000,4.2222061157226560,54.0548400878906250,53,100,87,79,81,15181,2147758665,2147421714,2148009289,2147874432,2147643574,2147061924,2148265225,2147197138,8,5,13,45316
1349871811,5809,980.4000244140625000,47.6831092834472660,673.2343139648438000,4.1912980079650880,54.0357284545898440,52,98,87,79,82,15180,2147757467,2147421732,2148007012,2147875200,2147647424,2147060653,2148264658,2147195300,3412,5,13,30664
1349875411,5807,982.9299926757812000,47.6450996398925800,672.3837890625000000,4.2194190025329590,54.0260810852050800,52,100,86,82,80,15180,2147757293,2147421869,2148010468,2147874304,2147641188,2147064603,2148262601,2147195282,336,4,13,16506
1349879011,5811,975.1900024414062000,47.3938407897949200,673.2702026367188000,4.1901087760925290,54.0747604370117200,52,101,86,79,81,15179,2147759817,2147422381,2148011757,2147876662,2147643602,2147057206,2148261906,2147199259,3343,4,13,19129
1349882611,5808,970.2899780273438000,48.5111312866210940,675.3676757812500000,4.1207199096679690,53.9460296630859400,52,100,89,80,80,15180,2147761508,2147421046,2148005522,2147869302,2147644452,2147058139,2148262345,2147196781,264,5,13,39969
1349886211,5807,982.0999755859375000,49.3511390686035160,676.2172241210938000,4.0925998687744140,53.8367500305175800,52,100,88,80,81,15179,2147761993,2147420434,2148010916,2147873170,2147646464,2147058761,2148262290,2147197376,272,5,13,14910
1349889811,5811,975.4500122070312000,48.6501502990722660,675.6190185546875000,4.1124000549316410,53.9315299987793000,52,98,85,79,81,15181,2147757979,2147419291,2148009700,2147872512,2147643072,2147059190,2148262692,2147197604,194,5,13,50972
1349893411,5811,979.9199829101562000,48.2130393981933600,674.3087158203125000,4.1557621955871580,53.9770088195800800,53,100,89,81,82,15176,2147755858,2147418971,2148009426,2147875309,2147646720,2147060288,2148263186,2147200045,735,5,13,14943
1349897011,5808,989.4699707031250000,47.7132682800293000,673.0330200195312000,4.1979560852050780,54.0282096862793000,52,101,89,81,82,15176,2147755785,2147421403,2148010797,2147875712,2147643126,2147058843,2148268516,2147199652,442,5,13,23590
1349900611,5806,992.2800292968750000,47.1240310668945300,672.6815185546875000,4.2095780372619630,54.1037788391113300,52,99,84,78,82,15177,2147761106,2147420699,2148009170,2147872356,2147642788,2147062034,2148264301,2147198363,2766,4,13,53922
1349904211,5806,985.3900146484375000,47.9234008789062500,673.8101196289062000,4.1722531318664550,54.0033988952636700,52,107,86,80,81,15177,2147759872,2147420379,2148011638,2147874057,2147644105,2147058761,2148264630,2147196205,3574,4,13,10980
1349907811,5805,988.9299926757812000,47.6981010437011700,673.2371826171875000,4.1911997795104980,54.0344314575195300,52,100,87,78,81,15181,2147757732,2147420635,2148011026,2147872603,2147643008,2147063570,2148262089,2147198134,493,5,13,35164
1349911411,5809,995.2199707031250000,47.3653602600097660,672.6594848632812000,4.2103018760681150,54.0694389343261700,52,100,88,80,81,15177,2147758400,2147421275,2148009773,2147872850,2147642596,2147066285,2148258816,2147196626,3293,4,13,24976
1349915011,5808,995.0599975585938000,47.0661582946777340,672.4686889648438000,4.2166137695312500,54.1101188659668000,52,100,86,81,82,15179,2147760274,2147421302,2148008713,2147876105,2147644571,2147060178,2148264082,2147196361,2887,5,13,34068
1349918611,5810,995.4699707031250000,46.6128196716308600,671.4644165039062000,4.2498087882995605,54.1623115539550800,53,101,87,79,82,15174,2147757467,2147421696,2148011318,2147873014,2147643072,2147059675,2148262436,2147199734,367,5,13,8631
1349922211,5807,981.2800292968750000,47.0675086975097660,673.2025146484375000,4.1923499107360840,54.1181106567382800,53,98,89,80,81,15178,2147756278,2147424612,2148011776,2147876946,2147645083,2147061019,2148262134,2147196836,3009,5,13,46364
1349925811,5808,983.1699829101562000,47.9999084472656250,675.1881713867188000,4.1266589164733890,54.0138511657714840,52,97,90,79,82,15177,2147761490,2147421193,2148008475,2147874084,2147643236,2147060260,2148267995,2147199789,406,5,13,45254
1349929411,5814,981.5200195312500000,48.7473602294921900,676.1168212890625000,4.0959239006042480,53.9221496582031250,53,99,86,78,81,15177,2147759213,2147421421,2148012114,2147874157,2147645476,2147060836,2148262729,2147198720,241,5,13,51484
1349933011,5811,986.6799926757812000,49.0189590454101560,676.1618041992188000,4.0944352149963380,53.8853416442871100,52,101,90,79,82,15175,2147756598,2147419355,2148008438,2147873590,2147644992,2147061037,2148261540,2147198738,67,5,13,60020
1349936611,5807,985.4899902343750000,48.2327613830566400,674.5587768554688000,4.1474838256835940,53.9707107543945300,53,99,88,79,81,15175,2147762048,2147419858,2148010825,2147874139,2147645659,2147057846,2148264740,2147197924,143,5,13,50440
1349940211,5808,992.8300170898438000,47.4198913574218750,674.0206909179688000,4.1652870178222660,54.0769195556640600,53,101,86,79,82,15174,2147759707,2147419821,2148010550,2147874770,2147641865,2147061494,2148263798,2147196224,644,5,13,5287
1349943811,5811,995.6400146484375000,46.5861511230468750,672.9384155273438000,4.2010841369628910,54.1863288879394500,53,98,90,79,81,15163,2147759076,2147419008,2148009618,2147877257,2147645988,2147064036,2148264877,2147201033,43,5,13,2578
1349947411,5808,983.6400146484375000,47.9137191772460940,674.7719116210938000,4.1404361724853520,54.0196418762207000,53,101,87,79,81,15163,2147758134,2147419099,2148008384,2147875273,2147647049,2147065033,2148261284,2147198363,201,5,13,169
1349951011,5809,994.3099975585938000,48.4903488159179700,674.7172241210938000,4.1422457695007320,53.9353904724121100,53,100,86,80,82,15164,2147761124,2147419995,2148010093,2147875044,2147645686,2147059949,2148266450,2147200411,333,5,13,52015
1349954611,5806,989.9000244140625000,49.2456207275390600,675.4973754882812000,4.1164259910583500,53.8436698913574200,52,101,86,79,81,15165,2147757504,2147419163,2148012233,2147876891,2147644443,2147058852,2148259584,2147199625,3565,5,13,29253
1349958211,5810,993.8900146484375000,47.9024009704589840,673.8004150390625000,4.1725749969482420,54.0103187561035160,53,99,85,81,82,15164,2147754112,2147420013,2148013248,2147872731,2147647552,2147061010,2148260315,2147193819,2846,5,13,54561
1349961811,5810,995.5100097656250000,46.8605499267578100,673.0476074218750000,4.1974701881408690,54.1489105224609400,52,97,86,79,81,15160,2147756297,2147424713,2148008932,2147873947,2147645065,2147059227,2148260416,2147201033,411,5,13,4711
1349965411,5811,996.1099853515625000,47.8946800231933600,674.0004272460938000,4.1659579277038570,54.0123786926269500,52,99,89,79,82,15163,2147755318,2147424393,2148010377,2147875154,2147644397,2147061284,2148263067,2147196955,3002,4,13,58844
1349969011,5808,990.6500244140625000,48.0525398254394500,674.3175048828125000,4.1554679870605470,53.9925193786621100,53,99,89,79,82,15165,2147758884,2147422025,2148010715,2147873600,2147644260,2147059245,2148267867,2147199771,618,4,13,61513
1349972611,5812,987.0000000000000000,48.9128990173339840,675.6002197265625000,4.1130242347717285,53.8914184570312500,52,98,85,79,82,15163,2147757851,2147421421,2148008576,2147869796,2147646793,2147055670,2148262948,2147197897,311,5,13,12165
1349976211,5806,987.1199951171875000,48.6647109985351560,675.9498901367188000,4.1014499664306640,53.9335212707519500,52,98,88,79,81,15159,2147756818,2147418486,2148008274,2147872146,2147645851,2147058057,2148265124,2147200969,356,5,13,40880
1349979811,5807,997.2199707031250000,48.0555000305175800,673.9758300781250000,4.1667709350585940,53.9897994995117200,52,98,86,79,81,15161,2147759378,2147420790,2148009508,2147874349,2147645513,2147057627,2148265627,2147199515,3145,5,13,20914
1349983411,5809,991.9299926757812000,47.7801208496093750,675.0711059570312000,4.1305332183837890,54.0392799377441400,53,99,86,78,82,15162,2147759561,2147420370,2148008621,2147872658,2147648502,2147059227,2148261001,2147196580,160,5,13,30435
1349984455,5807,990.3099975585938000,47.8146781921386700,674.7955932617188000,4.1396498680114750,54.0379104614257800,52,99,86,79,82,15178,2147756827,2147420214,2148009252,2147876992,2147644635,2147054930,2148261339,2147197878,3529,5,13,22396
